FALCON 9 DEB (50210 NORAD) Tracking and Keplerian Element Data

This shows tracking and keplerian element data for the satellite.

Feedback or suggestion? Click here.




ElementValue
Catalog50210
NameFALCON 9 DEB
Epoch Orbit210
Epoch Day364.41795789
Epoch Year2021
RAAN305.7139
Inclination53.2087
Eccentricity0.0030607
Argument of Perigee194.9549
Mean Anonmoly165.0595
Mean Motion16.31831341
Decay Rate0.04060057
L11 50210U 21125BG 21364.41795789 .04060057 11985-4 61375-3 0 9990
L22 50210 53.2087 305.7139 0030607 194.9549 165.0595 16.31831341 2105

Live tracking and technical data element details for FALCON 9 DEB (NORAD 50210). FALCON 9 DEB can be tracked NOW for your location showing map with azimuth and elevation plus other details from your city location.

Track the satellite on the map from your city or location and see movement details for azimuth, elevation, latitude, longitude, range, height, and movement on the map or in text.







IsCatalogInMostPopularTable: catalog: 50210, numindb: 29
Update: records affected: 1



GetName: 50210 FALCON 9 DEB

Hit Count: updated at: Mon, 23 May 2022 20:48:16 GMT